McMinnville, OR

3:13 AM PST on November 21, 2017 (GMT -0800)
McMinnville Municipal

Weather History for KMMV - December, 2012

Change the Weather History Date:

Wednesday, December 19, 2012

  Actual Average Record
Temperature  
Mean Temperature 42 °F 39 °F  
Max Temperature 48 °F 45 °F 60 °F (1931)
Min Temperature 36 °F 33 °F 11 °F (1924)
Degree Days  
Heating Degree Days 23 26  
Month to date heating degree days 401 472  
Since 1 July heating degree days 1344 1694  
Cooling Degree Days 0 0  
Month to date cooling degree days 0 0  
Year to date cooling degree days 300 215  
Moisture  
Dew Point 35 °F    
Average Humidity 80    
Maximum Humidity 89    
Minimum Humidity 70    
Precipitation  
Precipitation 0.41 in 0.21 in 2.77 in (1895)
Month to date precipitation 5.50 3.75  
Year to date precipitation 47.22 37.40  
Snow  
Snow 0.00 in - - ()
Month to date snowfall 0.0  
Snow Depth 0.00 in    
Sea Level Pressure  
Sea Level Pressure 29.82 in    
Wind  
Wind Speed 22 mph (South)    
Max Wind Speed 35 mph    
Max Gust Speed 47 mph    
Visibility 10 miles    
Events Rain    
T = Trace of Precipitation, MM = Missing Value Source: NWS Daily Summary

Daily Weather History Graph

Daily Weather History Graph

Search for Another Location

Airport or City:

Trip Planner

Search our weather history database for the weather conditions in past years. The results will help you decide how hot, cold, wet, or windy it might be!

Date:

Astronomy

Dec. 19, 2012 Rise Set
Actual Time 7:47 AM PST 4:32 PM PST
Civil Twilight 7:13 AM PST 5:06 PM PST
Nautical Twilight 6:36 AM PST 5:43 PM PST
Astronomical Twilight 6:00 AM PST 6:19 PM PST
Moon 11:40 AM PST (12/19) No Moon Set
Length of Visible Light 9h 52m
Length of Day
8h 44m
Waxing Crescent, 46% of the Moon is Illuminated
Dec 19
Waxing Crescent
Dec 19
First Quarter
Dec 28
Full
Jan 4
Last Quarter
Jan 11
New

Hourly Weather History & Observations

Time (PST) Temp. Windchill Dew Point Humidity Pressure Visibility Wind Dir Wind Speed Gust Speed Precip Events Conditions
12:53 AM 37.9 °F 29.6 °F 32.0 °F 79% 30.03 in 10.0 mi South 13.8 mph - N/A   Overcast
1:53 AM 37.9 °F 28.2 °F 33.1 °F 83% 30.01 in 10.0 mi South 18.4 mph 24.2 mph N/A   Overcast
2:53 AM 37.9 °F 30.0 °F 32.0 °F 79% 29.99 in 10.0 mi SSE 12.7 mph - N/A   Overcast
3:00 AM 37.4 °F 28.9 °F 32.0 °F 81% 29.99 in 10.0 mi SSE 13.8 mph - N/A   Overcast
3:53 AM 37.9 °F 30.0 °F 32.0 °F 79% 29.97 in 10.0 mi South 12.7 mph 23.0 mph N/A   Overcast
4:53 AM 37.9 °F 29.6 °F 32.0 °F 79% 29.94 in 10.0 mi South 13.8 mph 26.5 mph 0.01 in   Overcast
5:53 AM 39.0 °F 28.8 °F 32.0 °F 76% 29.92 in 10.0 mi South 21.9 mph 31.1 mph 0.00 in   Overcast
6:53 AM 39.0 °F 29.3 °F 33.1 °F 79% 29.91 in 10.0 mi South 19.6 mph 24.2 mph 0.00 in Rain Light Rain
7:11 AM 39.2 °F 29.3 °F 33.8 °F 81% 29.90 in 10.0 mi South 20.7 mph 26.5 mph 0.00 in Rain Light Rain
7:53 AM 39.0 °F 28.3 °F 33.1 °F 79% 29.89 in 10.0 mi South 24.2 mph 36.8 mph 0.01 in Rain Light Rain
8:53 AM 39.9 °F 30.0 °F 33.1 °F 77% 29.88 in 10.0 mi South 21.9 mph 34.5 mph 0.01 in Rain Light Rain
9:08 AM 39.2 °F 28.5 °F 33.8 °F 81% 29.87 in 10.0 mi South 24.2 mph 35.7 mph 0.00 in Rain Light Rain
9:18 AM 39.2 °F 28.5 °F 33.8 °F 81% 29.87 in 10.0 mi South 24.2 mph 35.7 mph 0.00 in Rain Light Rain
9:53 AM 39.9 °F 30.2 °F 34.0 °F 79% 29.87 in 10.0 mi South 20.7 mph 29.9 mph 0.01 in Rain Light Rain
10:53 AM 42.1 °F 32.1 °F 34.0 °F 73% 29.85 in 10.0 mi South 25.3 mph 33.4 mph 0.01 in   Overcast
11:53 AM 43.0 °F 32.9 °F 34.0 °F 71% 29.81 in 10.0 mi South 27.6 mph 35.7 mph 0.01 in   Overcast
12:53 PM 44.1 °F 34.6 °F 35.1 °F 71% 29.78 in 10.0 mi South 26.5 mph 35.7 mph 0.00 in Rain Light Rain
1:53 PM 46.0 °F 37.8 °F 35.1 °F 66% 29.75 in 10.0 mi South 23.0 mph 39.1 mph 0.00 in   Overcast
2:53 PM 46.0 °F 36.9 °F 36.0 °F 68% 29.73 in 10.0 mi South 28.8 mph 41.4 mph 0.01 in Rain Light Rain
3:53 PM 46.0 °F 37.4 °F 37.0 °F 71% 29.71 in 10.0 mi South 25.3 mph 41.4 mph 0.01 in Rain Light Rain
4:53 PM 46.9 °F - 37.0 °F 68% 29.70 in 10.0 mi South 24.2 mph 33.4 mph 0.02 in Rain Light Rain
5:53 PM 46.0 °F 39.0 °F 37.9 °F 73% 29.72 in 7.0 mi SSW 17.3 mph 23.0 mph 0.07 in Rain Rain
6:53 PM 45.0 °F 38.9 °F 39.0 °F 80% 29.70 in 10.0 mi South 12.7 mph 21.9 mph 0.10 in Rain Light Rain
7:53 PM 46.0 °F 38.0 °F 39.0 °F 76% 29.68 in 10.0 mi South 21.9 mph 33.4 mph 0.05 in Rain Light Rain
8:53 PM 46.9 °F - 37.9 °F 71% 29.65 in 10.0 mi South 28.8 mph 47.2 mph 0.02 in Rain Light Rain
9:53 PM 46.9 °F - 37.9 °F 71% 29.63 in 10.0 mi South 25.3 mph 36.8 mph 0.02 in Rain Light Rain
10:53 PM 46.9 °F - 37.9 °F 71% 29.62 in 10.0 mi South 31.1 mph 43.7 mph 0.04 in Rain Light Rain
11:53 PM 48.0 °F - 37.0 °F 66% 29.60 in 10.0 mi South 26.5 mph 40.3 mph 0.01 in Rain Light Rain